Regional Weather Roundup
Issued by NWS Mobile, AL

Home | Current Version | Previous Version | Text Only | Print | Product List | Glossary On
Versions: 1 2 3 4 5 6 7 8 9 10 11 12 13 14 15 16 17 18 19 20 21 22 23 24 25 26 27 28 29 30 31 32 33 34 35 36 37 38 39 40 41 42 43 44 45 46 47 48 49 50
000
ASUS44 KMOB 191612
RWRMOB
REGIONAL WEATHER ROUNDUP
NATIONAL WEATHER SERVICE MOBILE AL
1000 AM CST SUN NOV 19 2017

NOTE: "FAIR" INDICATES FEW OR NO CLOUDS BELOW 12,000 FEET WITH NO
      SIGNIFICANT WEATHER AND/OR OBSTRUCTIONS TO VISIBILITY.

  * THESE STATIONS ARE PART OF THE UNIVERSITY OF SOUTH ALABAMA
    MESONET AND ARE NOT UNDER NWS OR FAA QUALITY CONTROL.

ALZ061>064-191700-
COASTAL ALABAMA

CITY           SKY/WX    TMP DP  RH WIND       PRES   REMARKS
MOBILE REG APT MOSUNNY   55  35  47 N15G23    30.17S
BROOKLEY FIELD SUNNY     56  37  49 N20       30.17S
USA CAMPUS*    NOT AVBL
DOG RIVER*     NOT AVBL


CITY           SKY/WX    TMP DP  RH WIND       PRES   REMARKS
GULF SHORES    SUNNY     54  38  55 N8G18     30.14S

$$

ALZ051>060-191700-
INTERIOR SOUTHWEST AND SOUTH CENTRAL ALABAMA

CITY           SKY/WX    TMP DP  RH WIND       PRES   REMARKS
GREENVILLE     LGT RAIN  53  35  50 N15       30.12S
EVERGREEN      SUNNY     53  37  54 N12G20    30.15S
ATMORE*          N/A    N/A N/A N/A N7          N/A
ANDALUSIA/OPP  SUNNY     57  38  48 NW14G21   30.11S
ANDALUSIA*       N/A     52  37  58 N9        30.12S
FLORALA APT    SUNNY     54  37  52 N12       30.13S
FLORALA*         N/A     54  39  58 W7        30.83S

$$

FLZ001>006-191700-
WESTERN FLORIDA PANHANDLE

CITY           SKY/WX    TMP DP  RH WIND       PRES   REMARKS
PENSACOLA      SUNNY     56  39  53 N16G24    30.12S
NAS PENSACOLA  SUNNY     56  38  50 N16G25    30.12R
MILTON         SUNNY     54  41  61 N10G20    30.13S
WHTNG S FIELD  SUNNY     58  38  47 N16       30.12S


CITY           SKY/WX    TMP DP  RH WIND       PRES   REMARKS
JAY*             N/A     52  37  58 N8        30.14S
DUKE FIELD     SUNNY     55  37  51 N16G23    30.10R
CRESTVIEW      SUNNY     55  38  52 N9G22     30.12S
VALPARAISO     MOSUNNY   56  37  48 N15       30.09R
DESTIN         SUNNY     59  37  44 N15G23    30.10R

$$

MSZ076-079-191700-
INTERIOR SOUTHEAST MISSISSIPPI

CITY           SKY/WX    TMP DP  RH WIND       PRES   REMARKS
LEAKESVILLE*     N/A     52  34  50 N2        30.20S
AGRICOLA*        N/A     52  36  54 N8        30.17F

$$

MARINE OBSERVATIONS

STATION/POSITION TIME  TEMP    WIND        PRES    WAVE
                       AIR SEA DIR/SP/G            HT/PER
                 (UTC) (F)     (DEG/KT/KT) (MB)    (FT/S)
PASCAGOULA       1542   53     360/ 16/ 21 1021.3R
PETIT BOIS ISLND 1542   52     350/ 17/ 22 1022.3R
KATRINA CUT      1530   51     360/ 17     1021.3R
CEDAR POINT      1530   51     360/ 15     1020.7S
E DAUPHIN ISLAND 1600   52     350/ 21/ 25 1020.8R
MIDDLE BAY LIGHT 1530   53     350/ 25     1020.7R
USCG MOBILE BAY  1542   51 68  360/ 12/ 18 1021.5R
STATE DOCKS      1542   54 67              1021.4R
MEAHER PARK      1530   51     340/ 11     1021.3R
WEEKS BAY        1445   53                 1020.0R
FORT MORGAN      1542   52     360/ 24/ 29   N/A
12 S ORANGE BCH  NOT AVBL
PENSACOLA BAY    1542   54 69              1020.2R
64 S DAUPHIN ISL 1550   59 78   10/ 21/ 27 1020.6R   8/ 7
67 S FORT MORGAN 1530   60      10/ 19     1019.6R

$$

SELECTED LOCATIONS ACROSS THE REGION

CITY           SKY/WX    TMP DP  RH WIND       PRES   REMARKS
NEW ORLEANS    SUNNY     56  37  49 N13G26    30.22S
GULFPORT       SUNNY     55  35  47 N15G22    30.18S
PASCAGOULA AP  SUNNY     56  34  43 N17G24    30.16F
PASCAGOULA*      N/A     54  37  54 N8          N/A
HATTIESBURG    SUNNY     54  36  50 N13G18    30.22F
LAUREL         SUNNY     53  36  52 N12G18    30.23S
MERIDIAN       SUNNY     52  36  54 NW12      30.22R
JACKSON        SUNNY     54  31  41 N16       30.26R
MONTGOMERY     SUNNY     53  36  52 NW10      30.14S
TROY           SUNNY     54  37  52 N12       30.11S
ASHFORD*         N/A     52  37  58 N9        30.12S
DOTHAN         SUNNY     56  39  53 NW16G22   30.11R
PANAMA CITY    MOSUNNY   58  42  55 NW17      30.06R

$$




USA.gov is the U.S. government's official web portal to all federal, state and local government web resources and services.